(169489) = 2002 CJ169

Discovered at Socorro on 2002-02-08 by LINEAR.

Orbit

Orbit type: Main Belt

Note: WebGL enabled browser required.

epoch2023-09-13.0
epoch JD2460200.5
perihelion date2022-12-01.42243
perihelion JD2459914.92243
argument of perihelion (°)201.69017
ascending node (°)359.20094
inclination (°)7.12502
eccentricity0.1488421
perihelion distance (AU)1.9274439
Tisserand w.r.t. Jupiter3.6
ΔV w.r.t. Earth (km/sec)8.9
semimajor axis (AU)2.2644964
mean anomaly (°)82.59818
mean daily motion (°/day)0.28923200
aphelion distance (AU)2.602
period (years)3.41
P-vector [x]-0.93422003
P-vector [y]-0.30631465
P-vector [z]-0.18276835
Q-vector [x]0.35669307
Q-vector [y]-0.80473911
Q-vector [z]-0.47451556
absolute magnitude16.2
phase slope0.15
uncertainty0
referenceMPEC 2024-A34
observations used758
oppositions17
arc length (days)8294
first opposition used2000
last opposition used2023
residual rms (arc-secs)0.78
perturbers coarse indicatorM-v
perturbers precise indicator003Ek
first observation date used2000-10-07.0
last observation date used2023-06-22.0
computer nameMPCLINUX
JD of orbit computation2456966.924629
perihelion JD uncertainty (days)6.9241E-05
argument of perihelion uncertainty (°)3.1705E-05
ascending node uncertainty (°)2.8118E-05
inclination uncertainty (°)6.3114E-06
eccentricity uncertainty 6.2812E-08
perihelion distance uncertainty (AU)1.4094E-07
Minimum Orbit Intersection Distances (in AU)
for orbit epoch: 2460200.5, reference: E2024-A34
Mercury1.49644
Venus1.21099
Earth0.92619
Mars0.29615
Jupiter2.36057
Saturn6.63222
Uranus16.4415
Neptune27.2478

Observations

778 total observations over interval: 2000 10 07.31152 – 2023 06 22.927541
These data are available for download (format description).

Date (UT) J2000 RA J2000 Dec Magn Location Ref
2000 10 07.31152 01 31 03.35 +14 13 24.0 19.3 R 699 – Lowell Observatory-LONEOS MPS 85179
2000 10 07.35344 01 31 00.67 +14 13 14.9   699 – Lowell Observatory-LONEOS MPS 85179
2000 10 07.39540 01 30 57.94 +14 13 08.5   699 – Lowell Observatory-LONEOS MPS 85179
2000 10 07.43742 01 30 55.12 +14 13 00.9   699 – Lowell Observatory-LONEOS MPS 85179
2002 02 07.34523 11 09 22.92 +12 09 25.2 18.0 R 699 – Lowell Observatory-LONEOS MPS 55546
2002 02 07.37033 11 09 21.84 +12 09 27.5   699 – Lowell Observatory-LONEOS MPS 55546
2002 02 07.39546 11 09 20.67 +12 09 29.8   699 – Lowell Observatory-LONEOS MPS 55546
2002 02 07.42063 11 09 19.57 +12 09 32.8   699 – Lowell Observatory-LONEOS MPS 55546
2002 02 08.38163 11 08 38.99 +12 11 03.0 19.3   704 – Lincoln Laboratory ETS, New Mexico MPS 50351
2002 02 08.39644 11 08 38.11 +12 11 04.9 19.1   704 – Lincoln Laboratory ETS, New Mexico MPS 50351
2002 02 08.41077 11 08 37.57 +12 11 06.7 19.0   704 – Lincoln Laboratory ETS, New Mexico MPS 50351
2002 02 08.42511 11 08 36.90 +12 11 08.8 19.1   704 – Lincoln Laboratory ETS, New Mexico MPS 50351
2002 02 08.43942 11 08 36.22 +12 11 09.7 18.9   704 – Lincoln Laboratory ETS, New Mexico MPS 50351
2002 02 12.32731 11 05 33.35 +12 18 04.0 18.2   704 – Lincoln Laboratory ETS, New Mexico MPS 50351
2002 02 12.34177 11 05 32.58 +12 18 05.6 18.5   704 – Lincoln Laboratory ETS, New Mexico MPS 50351
2002 02 12.35679 11 05 31.78 +12 18 07.1 18.8   704 – Lincoln Laboratory ETS, New Mexico MPS 50351
2002 02 12.37138 11 05 30.97 +12 18 09.0 18.6   704 – Lincoln Laboratory ETS, New Mexico MPS 50351
2002 02 12.38597 11 05 30.19 +12 18 11.0 18.6   704 – Lincoln Laboratory ETS, New Mexico MPS 50351
2002 02 23.37941 10 54 45.02 +12 39 26.5 19.7   644 – Palomar Mountain/NEAT MPS 55546
2002 02 23.40061 10 54 43.58 +12 39 28.9 19.0   644 – Palomar Mountain/NEAT MPS 55546
2002 02 23.42188 10 54 42.14 +12 39 30.8 18.8   644 – Palomar Mountain/NEAT MPS 55546
2002 03 03.23891 10 45 59.68 +12 51 32.4 17.7 R 699 – Lowell Observatory-LONEOS MPS 55546
2002 03 03.25459 10 45 58.50 +12 51 33.4   699 – Lowell Observatory-LONEOS MPS 55546
2002 03 03.27030 10 45 57.43 +12 51 35.7   699 – Lowell Observatory-LONEOS MPS 55546
2002 03 03.28602 10 45 56.32 +12 51 36.2   699 – Lowell Observatory-LONEOS MPS 55546
2002 03 09.28559 10 39 14.13 +12 56 28.8 17.9   704 – Lincoln Laboratory ETS, New Mexico MPS 55546
2002 03 09.32553 10 39 11.38 +12 56 29.7 17.8   704 – Lincoln Laboratory ETS, New Mexico MPS 55546
2002 03 09.34541 10 39 10.06 +12 56 29.4 17.8   704 – Lincoln Laboratory ETS, New Mexico MPS 55546
2002 03 09.36516 10 39 08.67 +12 56 29.7 17.9   704 – Lincoln Laboratory ETS, New Mexico MPS 55546
2002 03 09.92229 10 38 32.58 +12 56 40.1 17.8   106 – Crni Vrh MPS 52726
2002 03 09.94012 10 38 31.47 +12 56 41.0 18.2   106 – Crni Vrh MPS 52726
2002 03 09.95872 10 38 30.04 +12 56 40.9 18.8   106 – Crni Vrh MPS 52726
2002 03 11.84971 10 36 28.91 +12 57 00.7 17.7   106 – Crni Vrh MPS 52726
2002 03 11.87002 10 36 27.62 +12 57 00.4 17.8   106 – Crni Vrh MPS 52726
2002 03 11.89029 10 36 26.26 +12 57 00.3 17.8   106 – Crni Vrh MPS 52726
2002 03 12.37920 10 35 55.10 +12 57 01.5 17.6   644 – Palomar Mountain/NEAT MPS 55546
2002 03 12.39689 10 35 53.95 +12 57 01.3 17.7   644 – Palomar Mountain/NEAT MPS 55546
2002 03 12.41699 10 35 52.63 +12 57 01.2 17.7   644 – Palomar Mountain/NEAT MPS 55546
2002 03 13.84752 10 34 24.47 +12 56 44.6 18.4   106 – Crni Vrh MPS 52726
2002 03 13.86651 10 34 23.24 +12 56 44.5 18.4   106 – Crni Vrh MPS 52726
2002 03 13.88556 10 34 22.05 +12 56 43.6 18.8   106 – Crni Vrh MPS 52726
2002 03 14.24034 10 34 00.45 +12 56 39.4 17.9   704 – Lincoln Laboratory ETS, New Mexico MPS 52726
2002 03 14.25408 10 33 59.59 +12 56 38.8 18.5   704 – Lincoln Laboratory ETS, New Mexico MPS 52726
2002 03 14.26771 10 33 58.71 +12 56 39.2 18.2   704 – Lincoln Laboratory ETS, New Mexico MPS 52726
2002 03 14.29618 10 33 56.90 +12 56 38.5 17.8   704 – Lincoln Laboratory ETS, New Mexico MPS 52726
2002 03 16.18276 10 32 05.13 +12 55 37.4 18.5   704 – Lincoln Laboratory ETS, New Mexico MPS 52726
2002 03 16.19547 10 32 04.34 +12 55 37.3 19.5   704 – Lincoln Laboratory ETS, New Mexico MPS 52726
2002 03 16.20822 10 32 03.55 +12 55 37.0 18.6   704 – Lincoln Laboratory ETS, New Mexico MPS 52726
2002 03 16.22104 10 32 02.74 +12 55 36.2 18.9   704 – Lincoln Laboratory ETS, New Mexico MPS 52726
2002 03 16.23390 10 32 02.00 +12 55 35.4 19.1   704 – Lincoln Laboratory ETS, New Mexico MPS 52726
2002 03 23.12110 10 26 00.15 +12 46 36.5 18.5 V 691 – Steward Observatory, Kitt Peak-Spacewatch MPS 55546
2002 03 23.14239 10 25 59.11 +12 46 34.2 18.5 V 691 – Steward Observatory, Kitt Peak-Spacewatch MPS 55546
2002 03 23.16372 10 25 58.06 +12 46 31.6 18.5 V 691 – Steward Observatory, Kitt Peak-Spacewatch MPS 55546
2002 03 24.12403 10 25 14.45 +12 44 36.5 18.3 V 691 – Steward Observatory, Kitt Peak-Spacewatch MPS 55546
2002 03 24.15240 10 25 13.06 +12 44 33.6 18.4 V 691 – Steward Observatory, Kitt Peak-Spacewatch MPS 55546
2002 03 24.18068 10 25 11.79 +12 44 30.1 18.6 V 691 – Steward Observatory, Kitt Peak-Spacewatch MPS 55546
2002 03 24.29352 10 25 06.44 +12 44 15.3 18.9 V 691 – Steward Observatory, Kitt Peak-Spacewatch MPS 55546
2002 03 24.29780 10 25 06.24 +12 44 15.0 19.0 V 691 – Steward Observatory, Kitt Peak-Spacewatch MPS 55546
2002 03 24.30215 10 25 06.05 +12 44 14.1 19.0 V 691 – Steward Observatory, Kitt Peak-Spacewatch MPS 55546
2002 04 01.20814 10 20 20.87 +12 21 54.0 18.1 R 699 – Lowell Observatory-LONEOS MPS 55546
2002 04 01.21641 10 20 20.64 +12 21 52.0   699 – Lowell Observatory-LONEOS MPS 55546
2002 04 01.22466 10 20 20.39 +12 21 50.2   699 – Lowell Observatory-LONEOS MPS 55546
2002 04 01.23300 10 20 20.17 +12 21 48.1   699 – Lowell Observatory-LONEOS MPS 55546
2002 04 03.19839 10 19 30.31 +12 14 35.1 18.4   644 – Palomar Mountain/NEAT MPS 55546
2002 04 03.21937 10 19 29.74 +12 14 30.3 18.9   644 – Palomar Mountain/NEAT MPS 55546
2002 04 03.24034 10 19 29.22 +12 14 25.4 19.5   644 – Palomar Mountain/NEAT MPS 55546
2002 04 03.25683 10 19 28.74 +12 14 21.2 18.0 R 699 – Lowell Observatory-LONEOS MPS 55546
2002 04 03.27999 10 19 28.16 +12 14 16.3   699 – Lowell Observatory-LONEOS MPS 55546
2002 04 03.30318 10 19 27.50 +12 14 11.1   699 – Lowell Observatory-LONEOS MPS 55546
2002 04 03.32642 10 19 26.96 +12 14 04.8   699 – Lowell Observatory-LONEOS MPS 55546
2002 04 17.20371 10 17 46.27 +11 05 16.0 19.4   704 – Lincoln Laboratory ETS, New Mexico MPS 55546
2002 04 17.21737 10 17 46.39 +11 05 11.3 19.5   704 – Lincoln Laboratory ETS, New Mexico MPS 55546
2002 04 17.23099 10 17 46.43 +11 05 05.4 19.6   704 – Lincoln Laboratory ETS, New Mexico MPS 55546
2002 04 17.24460 10 17 46.43 +11 05 00.2 19.6   704 – Lincoln Laboratory ETS, New Mexico MPS 55546
2002 04 17.25822 10 17 46.59 +11 04 54.7 19.4   704 – Lincoln Laboratory ETS, New Mexico MPS 55546
2003 08 22.26678 23 09 08.07 -10 08 16.5 18.7   644 – Palomar Mountain/NEAT MPS 84019
2003 08 22.30618 23 09 05.68 -10 08 25.0 18.7   644 – Palomar Mountain/NEAT MPS 84019
2003 08 22.34951 23 09 03.07 -10 08 34.4 19.1   644 – Palomar Mountain/NEAT MPS 84019
2003 09 01.26051 22 58 50.22 -10 44 43.8 19.8   704 – Lincoln Laboratory ETS, New Mexico MPS 84019
2003 09 01.27226 22 58 49.50 -10 44 46.2 19.9   704 – Lincoln Laboratory ETS, New Mexico MPS 84019
2003 09 01.28411 22 58 48.74 -10 44 49.7 19.6   704 – Lincoln Laboratory ETS, New Mexico MPS 84019
2003 09 01.29605 22 58 47.90 -10 44 51.0 20.0   704 – Lincoln Laboratory ETS, New Mexico MPS 84019
2004 12 20.20401 06 01 03.42 +35 40 37.5 18.9 R 703 – Catalina Sky Survey MPS 122673
2004 12 20.21039 06 01 02.86 +35 40 38.5 18.9 R 703 – Catalina Sky Survey MPS 122673
2004 12 20.21678 06 01 02.30 +35 40 38.4 19.0 R 703 – Catalina Sky Survey MPS 122673
2004 12 20.22314 06 01 01.78 +35 40 37.0 19.2 R 703 – Catalina Sky Survey MPS 122673
2006 06 26.58762 19 31 22.94 -34 44 53.1 18.6 V E12 – Siding Spring Survey MPS 174467
2006 06 26.59723 19 31 22.26 -34 44 54.5 18.6 V E12 – Siding Spring Survey MPS 174467
2006 06 26.60682 19 31 21.61 -34 44 56.0 18.6 V E12 – Siding Spring Survey MPS 174467
